<?xml version="1.0"?>
<gpx xmlns="http://www.topografix.com/GPX/1/1" xmlns:xsi="http://www.w3.org/2001/XMLSchema-instance" version="1.1" creator="GPX RubyGem 1.0.0 -- http://dougfales.github.io/gpx/" xsi:schemaLocation="http://www.topografix.com/GPX/1/1 http://www.topografix.com/GPX/1/1/gpx.xsd">
  <metadata>
    <name/>
    <time>2026-05-03T21:36:44+00:00</time>
    <bound minlat="90.0" minlon="180.0" maxlat="-90.0" maxlon="-180.0"/>
  </metadata>
  <trk>
    <name/>
    <trkseg>
      <trkpt lat="38.861483" lon="-9.259707">
        <time>1970-01-01T00:00:00+00:00</time>
        <ele>254.0</ele>
      </trkpt>
      <trkpt lat="38.861731" lon="-9.259444">
        <time>1970-01-01T00:00:00+00:00</time>
        <ele>255.0</ele>
      </trkpt>
      <trkpt lat="38.862347" lon="-9.258876">
        <time>1970-01-01T00:00:00+00:00</time>
        <ele>257.0</ele>
      </trkpt>
      <trkpt lat="38.862714" lon="-9.2585">
        <time>1970-01-01T00:00:00+00:00</time>
        <ele>256.0</ele>
      </trkpt>
      <trkpt lat="38.862942" lon="-9.258133">
        <time>1970-01-01T00:00:00+00:00</time>
        <ele>253.0</ele>
      </trkpt>
      <trkpt lat="38.863114" lon="-9.257688">
        <time>1970-01-01T00:00:00+00:00</time>
        <ele>253.0</ele>
      </trkpt>
      <trkpt lat="38.863344" lon="-9.257426">
        <time>1970-01-01T00:00:00+00:00</time>
        <ele>254.0</ele>
      </trkpt>
      <trkpt lat="38.863884" lon="-9.25732">
        <time>1970-01-01T00:00:00+00:00</time>
        <ele>258.0</ele>
      </trkpt>
      <trkpt lat="38.863966" lon="-9.257281">
        <time>1970-01-01T00:00:00+00:00</time>
        <ele>259.0</ele>
      </trkpt>
      <trkpt lat="38.863966" lon="-9.257281">
        <time>1970-01-01T00:00:00+00:00</time>
        <ele>259.0</ele>
      </trkpt>
      <trkpt lat="38.863884" lon="-9.25732">
        <time>1970-01-01T00:00:00+00:00</time>
        <ele>258.0</ele>
      </trkpt>
      <trkpt lat="38.863344" lon="-9.257426">
        <time>1970-01-01T00:00:00+00:00</time>
        <ele>254.0</ele>
      </trkpt>
      <trkpt lat="38.863114" lon="-9.257688">
        <time>1970-01-01T00:00:00+00:00</time>
        <ele>253.0</ele>
      </trkpt>
      <trkpt lat="38.862942" lon="-9.258133">
        <time>1970-01-01T00:00:00+00:00</time>
        <ele>253.0</ele>
      </trkpt>
      <trkpt lat="38.862714" lon="-9.2585">
        <time>1970-01-01T00:00:00+00:00</time>
        <ele>256.0</ele>
      </trkpt>
      <trkpt lat="38.862347" lon="-9.258876">
        <time>1970-01-01T00:00:00+00:00</time>
        <ele>257.0</ele>
      </trkpt>
      <trkpt lat="38.861731" lon="-9.259444">
        <time>1970-01-01T00:00:00+00:00</time>
        <ele>255.0</ele>
      </trkpt>
      <trkpt lat="38.861483" lon="-9.259707">
        <time>1970-01-01T00:00:00+00:00</time>
        <ele>254.0</ele>
      </trkpt>
    </trkseg>
  </trk>
</gpx>
